Regional Weather Roundup
Issued by NWS

Home | Current Version | Previous Version | Text Only | Print | Product List | Glossary Off
Versions: 1 2 3 4 5 6 7 8 9 10 11 12 13 14 15 16 17 18 19 20 21 22 23 24 25 26 27 28 29 30 31 32 33 34 35 36 37 38 39 40 41 42 43 44 45 46 47 48 49 50

000
ASUS43 KLOT 281106
RWRIL

ILLINOIS REGIONAL WEATHER ROUNDUP
NATIONAL WEATHER SERVICE CHICAGO/ROMEOVILLE IL
500 AM CST FRI NOV 28 2014

NOTE: "FAIR" INDICATES FEW OR NO CLOUDS BELOW 12,000 FEET WITH NO
SIGNIFICANT WEATHER AND/OR OBSTRUCTIONS TO VISIBILITY.

* THESE STATIONS ARE NOT UNDER NWS QUALITY CONTROL. THEY ALSO MAY NOT
  REPORT WEATHER SUCH AS PRECIPITATION OR FOG.

ILZ001-002-007-009-015-016-024-281200-
NORTHWEST ILLINOIS

CITY           SKY/WX    TMP DP  RH WIND       PRES   REMARKS
MOLINE         CLOUDY    18   9  68 SE8       30.26F WCI   8
STERLING*      CLOUDY    16  10  79 SE8       30.26F WCI   5
SAVANNA*       CLOUDY    17  10  74 SE7       30.27F WCI   7
$$

ILZ003-004-008-010-011-017-018-281200-
NORTH CENTRAL ILLINOIS

CITY           SKY/WX    TMP DP  RH WIND       PRES   REMARKS
ROCKFORD       FLURRIES  17   8  67 S8        30.30F WCI   7
FREEPORT*      CLOUDY    15   8  75 SE8       30.28F WCI   4
ROCHELLE*      CLOUDY    17  11  77 SE8       30.30F WCI   6
DE KALB*       CLOUDY    15   9  76 SE8       30.30F WCI   4
PERU*          LGT SNOW  18  13  84 S8        30.32F WCI   7
$$

ILZ005-006-012>014-019>023-281200-
NORTHEAST ILLINOIS

CITY           SKY/WX    TMP DP  RH WIND       PRES   REMARKS
CHICAGO-OHARE  FLURRIES  19  12  74 S5        30.32F WCI  12
CHICAGO-MIDWAY FLURRIES  22  13  68 S5        30.33F WCI  16
AURORA         CLOUDY    18   9  68 SE5       30.32F WCI  11
LANSING*       CLOUDY    20  15  81 S5        30.34F WCI  14
JOLIET*        CLOUDY    18  13  79 CALM      30.34F
WAUKEGAN       CLOUDY    17  10  74 SE3       30.31F
DUPAGE AIRPORT CLOUDY    18  13  80 SE5       30.31F WCI  11
KANKAKEE*      CLOUDY   N/A N/A N/A SE5       30.35F
WHEELING       CLOUDY    20  12  71 S7        30.34F WCI  11
MORRIS*        CLOUDY    18  15  88 SE3       30.32F
ROMEOVILLE*    CLOUDY    19  13  78 CALM      30.32F
NORTHERLY ISL    N/A     21  11  65 S5          N/A  WCI  15
$$

LMZ740>746-281200-
SOUTHERN LAKE MICHIGAN

STATION/POSITION SKY/WX   TEMP    WIND        PRES    VSBY  WAVE
                          AIR SEA DIR/SP/G                  HT/PER
                          (F)     (DEG/KT/KT) (MB)    (MI)  (FT/S)
SOUTHERN BUOY              24 42  230/  8/ 10 1028.2F         2/ 6
WAUKEGAN HARBOR            19     210/  6/  7   N/A
HARRISON CRIB              21     190/ 10/ 12   N/A
BURNHAM HARBOR             21     200/  5/  7   N/A
CALUMET HARBOR             21     190/  4/  6 1026.0F
MICHIGAN CITY              21     170/  7/  8   N/A
$$

ILZ025>027-034>036-040-047-049-050-058-095>099-281200-
WEST-CENTRAL ILLINOIS

CITY           SKY/WX    TMP DP  RH WIND       PRES   REMARKS
QUINCY         PTCLDY    21  16  81 SE13      30.22F WCI   9
GALESBURG*     CLOUDY    17  10  75 SE6       30.24F WCI   8
MACOMB*        PTCLDY    14   9  81 SE12      30.28F WCI   0
JACKSONVILLE*  PTCLDY    20  15  79 SE8       30.29F WCI  11
PITTSFIELD*    CLEAR     22  19  87 SE10      30.27F WCI  11
$$

ILZ028>032-037-038-041>044-048-051>054-059>061-281200-
CENTRAL ILLINOIS

CITY           SKY/WX    TMP DP  RH WIND       PRES   REMARKS
PONTIAC        FLURRIES  19  14  81 SE5       30.34F WCI  13
BLOOMINGTON    MOCLDY    19  14  81 S8        30.33F WCI   9
DECATUR        PTCLDY    19   9  65 S7        30.35F WCI  10
PEORIA         CLOUDY    20  11  68 SE9       30.31F WCI   9
LACON*         MOCLDY    18  11  73 SE8       30.30F WCI   8
LINCOLN*       CLOUDY    18  12  77 SE7       30.35F WCI   9
SPRINGFIELD    MOCLDY    17  10  74 SE8       30.32F WCI   7
TAYLORVILLE    MOCLDY    19  12  73 SE9       30.33F WCI   9
$$

ILZ033-039-045-046-055>057-062-063-281200-
EAST-CENTRAL ILLINOIS

CITY           SKY/WX    TMP DP  RH WIND       PRES   REMARKS
CHAMPAIGN      CLOUDY    19  14  81 S9        30.36S WCI   8
DANVILLE*      CLOUDY    20  17  86 SE6       30.33S WCI  13
RANTOUL*       CLOUDY    21  15  78 S6        30.35S WCI  14
MATTOON        MOCLDY    20  10  65 S6        30.36F WCI  12
PARIS*         CLOUDY    21  17  84 S5        30.39S WCI  14
$$

ILZ079-100>102-281200-
SOUTHWEST ILLINOIS

CITY           SKY/WX    TMP DP  RH WIND       PRES   REMARKS
ALTON          CLEAR     23  19  87 SE7       30.33F WCI  14
BELLEVILLE     PTCLDY    23  22  95 SE6       30.34F WCI  16
CAHOKIA*       CLEAR     25  21  85 SE6       30.33F WCI  18
SPARTA*        CLEAR     25  22  90 SE8       30.35F WCI  16
$$

ILZ064>066-069>071-074>076-080>082-084>086-088>090-092>094-281200-
SOUTH-CENTRAL ILLINOIS

CITY           SKY/WX    TMP DP  RH WIND       PRES   REMARKS
CARBONDALE     CLEAR     24  21  88 SE5       30.39F WCI  18
CAIRO*         PTCLDY    29  25  82 SE3       30.41S
EFFINGHAM*     PTCLDY    21  13  71 SE5       30.39S WCI  14
MARION         PTCLDY    27  23  86 CALM      30.39F
MT. VERNON     MOCLDY    25  18  74 CALM      30.39F
CENTRALIA*     MOCLDY    24  19  83 SE7       30.36F WCI  16
SALEM*           N/A     25  19  80 SE6       30.36F WCI  18
METROPOLIS*    PTCLDY    27  27 100 CALM        N/A  FOG
$$

ILZ067-068-072-073-078-083-087-091-281200-
SOUTHEAST ILLINOIS

CITY           SKY/WX    TMP DP  RH WIND       PRES   REMARKS
LAWRENCEVILLE  CLOUDY    23  20  88 SE3       30.41F
FLORA*         CLOUDY    22  19  89 SE3       30.40S
FAIRFIELD*     MOCLDY    24  20  85 CALM      30.40S
HARRISBURG*    MOCLDY    28  26  95 SE3       30.42S
ROBINSON*      CLOUDY    23  20  87 S3        30.42F
CARMI*         CLOUDY    27  27 100 W3        30.41S
$$

ABBREVIATIONS USED IN REMARKS
   TC - TEMPERATURE IN CELSIUS
  WCI - WIND CHILL INDEX
   HX - HEAT INDEX
  VSB - VISIBILITY
$$



USA.gov is the U.S. government's official web portal to all federal, state and local government web resources and services.